Time,TemperatureF,DewpointF,PressureIn,WindDirection,WindDirectionDegrees,WindSpeedMPH,WindSpeedGustMPH,Humidity,HourlyPrecipIn,Conditions,Clouds,dailyrainin,SoftwareType,DateUTC
2013-06-09 00:02:00,61.0,59.0,29.81,South,189,0.0,1.0,92,0.02,,,0.68,,2013-06-09 05:02:00,
2013-06-09 00:12:00,61.0,59.0,29.81,South,189,0.0,1.0,92,0.02,,,0.68,,2013-06-09 05:12:00,
2013-06-09 00:22:00,61.0,59.0,29.81,South,188,1.0,2.0,92,0.03,,,0.70,,2013-06-09 05:22:00,
2013-06-09 00:32:00,61.0,59.0,29.81,South,183,1.0,7.0,92,0.04,,,0.71,,2013-06-09 05:32:00,
2013-06-09 00:42:00,61.0,59.0,29.81,South,183,1.0,7.0,92,0.04,,,0.71,,2013-06-09 05:42:00,
2013-06-09 00:52:00,61.0,59.0,29.81,South,183,1.0,4.0,92,0.04,,,0.71,,2013-06-09 05:52:00,
2013-06-09 01:02:00,61.0,59.0,29.81,South,183,1.0,4.0,92,0.04,,,0.72,,2013-06-09 06:02:00,
2013-06-09 01:12:00,61.0,59.0,29.81,South,183,1.0,4.0,92,0.04,,,0.72,,2013-06-09 06:12:00,
2013-06-09 01:22:00,61.0,59.0,29.81,South,183,0.0,2.0,92,0.05,,,0.75,,2013-06-09 06:22:00,
2013-06-09 01:32:00,61.0,59.0,29.80,South,183,1.0,4.0,93,0.06,,,0.77,,2013-06-09 06:32:00,
2013-06-09 01:42:00,61.0,59.0,29.80,South,189,2.0,6.0,93,0.08,,,0.79,,2013-06-09 06:42:00,
2013-06-09 01:52:00,61.0,59.0,29.80,South,189,2.0,6.0,93,0.08,,,0.79,,2013-06-09 06:52:00,
2013-06-09 02:02:00,61.0,59.0,29.79,South,190,2.0,5.0,93,0.07,,,0.79,,2013-06-09 07:02:00,
2013-06-09 02:12:00,61.0,59.0,29.79,South,190,2.0,5.0,93,0.07,,,0.79,,2013-06-09 07:12:00,
2013-06-09 02:22:00,61.0,59.0,29.78,South,190,1.0,5.0,93,0.04,,,0.79,,2013-06-09 07:22:00,
2013-06-09 02:32:00,61.0,59.0,29.77,South,190,1.0,4.0,93,0.02,,,0.79,,2013-06-09 07:32:00,
2013-06-09 02:42:00,61.0,59.0,29.77,South,190,1.0,4.0,93,0.02,,,0.79,,2013-06-09 07:42:00,
2013-06-09 02:52:00,61.0,59.0,29.77,SE,138,2.0,6.0,93,0.01,,,0.80,,2013-06-09 07:52:00,
2013-06-09 03:02:00,61.0,59.0,29.77,SE,138,2.0,4.0,93,0.01,,,0.80,,2013-06-09 08:02:00,
2013-06-09 03:12:00,61.0,59.0,29.77,SE,138,2.0,4.0,93,0.01,,,0.80,,2013-06-09 08:12:00,
2013-06-09 03:22:00,61.0,59.0,29.78,SE,138,1.0,5.0,93,0.01,,,0.80,,2013-06-09 08:22:00,
2013-06-09 03:32:00,61.0,59.0,29.76,SE,131,2.0,5.0,93,0.01,,,0.80,,2013-06-09 08:32:00,
2013-06-09 03:42:00,61.0,59.0,29.76,SE,131,2.0,5.0,93,0.01,,,0.80,,2013-06-09 08:42:00,
2013-06-09 03:53:00,61.0,59.0,29.77,South,173,3.0,6.0,93,0.00,,,0.80,,2013-06-09 08:53:00,
2013-06-09 04:02:00,61.0,59.0,29.78,South,177,2.0,6.0,93,0.03,,,0.83,,2013-06-09 09:02:00,
2013-06-09 04:12:00,61.0,59.0,29.78,South,177,2.0,6.0,93,0.03,,,0.83,,2013-06-09 09:12:00,
2013-06-09 04:22:00,61.0,59.0,29.78,SSW,193,2.0,6.0,93,0.06,,,0.86,,2013-06-09 09:22:00,
2013-06-09 04:33:00,62.0,60.0,29.78,SSW,193,3.0,7.0,93,0.07,,,0.87,,2013-06-09 09:33:00,
2013-06-09 04:43:00,62.0,60.0,29.78,SSW,193,3.0,7.0,93,0.07,,,0.87,,2013-06-09 09:43:00,
2013-06-09 04:52:00,62.0,60.0,29.77,SSW,196,3.0,6.0,93,0.10,,,0.90,,2013-06-09 09:52:00,
2013-06-09 05:03:00,62.0,60.0,29.79,SSW,205,3.0,7.0,93,0.11,,,0.94,,2013-06-09 10:03:00,
2013-06-09 05:12:00,62.0,60.0,29.79,SSW,197,2.0,5.0,93,0.11,,,0.97,,2013-06-09 10:12:00,
2013-06-09 05:23:00,62.0,60.0,29.79,SSW,197,2.0,5.0,93,0.11,,,0.97,,2013-06-09 10:23:00,
2013-06-09 05:32:00,61.0,59.0,29.78,SSW,202,3.0,5.0,92,0.18,,,1.05,,2013-06-09 10:32:00,
2013-06-09 05:43:00,61.0,59.0,29.78,SSW,202,3.0,5.0,92,0.18,,,1.05,,2013-06-09 10:43:00,
2013-06-09 05:52:00,60.0,58.0,29.77,SW,220,3.0,7.0,92,0.15,,,1.05,,2013-06-09 10:52:00,
2013-06-09 06:02:00,60.0,58.0,29.78,SSW,207,1.0,7.0,93,0.11,,,1.05,,2013-06-09 11:02:00,
2013-06-09 06:12:00,60.0,58.0,29.78,SSW,207,1.0,7.0,93,0.11,,,1.05,,2013-06-09 11:12:00,
2013-06-09 06:22:00,60.0,58.0,29.78,SSW,197,1.0,6.0,92,0.08,,,1.05,,2013-06-09 11:22:00,
2013-06-09 06:32:00,61.0,59.0,29.78,SSW,194,1.0,5.0,93,0.00,,,1.05,,2013-06-09 11:32:00,
2013-06-09 06:42:00,61.0,59.0,29.78,SSW,194,1.0,5.0,93,0.00,,,1.05,,2013-06-09 11:42:00,
2013-06-09 06:52:00,61.0,59.0,29.78,SSW,194,2.0,5.0,92,0.00,,,1.05,,2013-06-09 11:52:00,
2013-06-09 07:02:00,62.0,60.0,29.78,SSW,194,2.0,5.0,93,0.00,,,1.05,,2013-06-09 12:02:00,
2013-06-09 07:12:00,62.0,60.0,29.78,SSW,194,2.0,5.0,93,0.00,,,1.05,,2013-06-09 12:12:00,
2013-06-09 07:22:00,62.0,60.0,29.78,SSW,195,3.0,7.0,93,0.00,,,1.05,,2013-06-09 12:22:00,
2013-06-09 07:32:00,63.0,61.0,29.78,SSW,198,4.0,12.0,93,0.00,,,1.05,,2013-06-09 12:32:00,
2013-06-09 07:42:00,63.0,61.0,29.78,SSW,198,4.0,12.0,93,0.00,,,1.05,,2013-06-09 12:42:00,
2013-06-09 07:52:00,63.0,61.0,29.78,South,190,3.0,9.0,93,0.00,,,1.05,,2013-06-09 12:52:00,
2013-06-09 08:02:00,63.0,61.0,29.78,SSW,193,2.0,5.0,93,0.00,,,1.05,,2013-06-09 13:02:00,
2013-06-09 08:12:00,63.0,61.0,29.78,SSW,193,2.0,5.0,93,0.00,,,1.05,,2013-06-09 13:12:00,
2013-06-09 08:22:00,63.0,61.0,29.78,SSW,193,2.0,5.0,93,0.00,,,1.05,,2013-06-09 13:22:00,
2013-06-09 08:32:00,63.0,61.0,29.78,South,180,1.0,5.0,93,0.00,,,1.05,,2013-06-09 13:32:00,
2013-06-09 08:42:00,64.0,62.0,29.78,WSW,250,2.0,6.0,93,0.00,,,1.05,,2013-06-09 13:42:00,
2013-06-09 08:52:00,64.0,62.0,29.78,WSW,250,2.0,6.0,93,0.00,,,1.05,,2013-06-09 13:52:00,
2013-06-09 09:02:00,64.0,61.0,29.78,SSW,205,2.0,6.0,91,0.00,,,1.05,,2013-06-09 14:02:00,
2013-06-09 09:12:00,64.0,61.0,29.78,SSW,205,2.0,6.0,91,0.00,,,1.05,,2013-06-09 14:12:00,
2013-06-09 09:22:00,65.0,62.0,29.78,SSW,205,1.0,5.0,91,0.00,,,1.05,,2013-06-09 14:22:00,
2013-06-09 09:32:00,65.0,62.0,29.79,West,263,3.0,7.0,89,0.00,,,1.05,,2013-06-09 14:32:00,
2013-06-09 09:42:00,65.0,61.0,29.78,WSW,244,2.0,5.0,87,0.00,,,1.05,,2013-06-09 14:42:00,
2013-06-09 09:52:00,65.0,61.0,29.78,WSW,244,2.0,5.0,87,0.00,,,1.05,,2013-06-09 14:52:00,
2013-06-09 10:02:00,67.0,62.0,29.78,SW,234,3.0,5.0,85,0.00,,,1.05,,2013-06-09 15:02:00,
2013-06-09 10:12:00,67.0,62.0,29.78,SW,234,3.0,5.0,85,0.00,,,1.05,,2013-06-09 15:12:00,
2013-06-09 10:22:00,67.0,61.0,29.78,West,278,3.0,5.0,81,0.00,,,1.05,,2013-06-09 15:22:00,
2013-06-09 10:33:00,68.0,61.0,29.78,NW,304,3.0,11.0,79,0.00,,,1.05,,2013-06-09 15:33:00,
2013-06-09 10:43:00,68.0,61.0,29.78,NW,304,3.0,11.0,79,0.00,,,1.05,,2013-06-09 15:43:00,
2013-06-09 10:53:00,68.0,60.0,29.78,West,265,5.0,12.0,75,0.00,,,1.05,,2013-06-09 15:53:00,
2013-06-09 11:03:00,68.0,60.0,29.77,NW,304,3.0,10.0,75,0.00,,,1.05,,2013-06-09 16:03:00,
2013-06-09 11:13:00,68.0,60.0,29.77,NW,304,3.0,10.0,75,0.00,,,1.05,,2013-06-09 16:13:00,
2013-06-09 11:23:00,68.0,58.0,29.77,WNW,285,7.0,16.0,71,0.00,,,1.05,,2013-06-09 16:23:00,
2013-06-09 11:33:00,68.0,57.0,29.78,WNW,288,7.0,13.0,69,0.00,,,1.05,,2013-06-09 16:33:00,
2013-06-09 11:42:00,68.0,57.0,29.78,WNW,288,7.0,13.0,69,0.00,,,1.05,,2013-06-09 16:42:00,
2013-06-09 11:53:00,68.0,58.0,29.78,WSW,257,4.0,12.0,70,0.00,,,1.05,,2013-06-09 16:53:00,
2013-06-09 12:02:00,69.0,57.0,29.78,West,278,7.0,14.0,66,0.00,,,1.05,,2013-06-09 17:02:00,
2013-06-09 12:12:00,69.0,57.0,29.78,West,276,5.0,10.0,66,0.00,,,1.05,,2013-06-09 17:12:00,
2013-06-09 12:22:00,69.0,57.0,29.78,West,276,5.0,10.0,66,0.00,,,1.05,,2013-06-09 17:22:00,
2013-06-09 12:32:00,69.0,58.0,29.78,West,270,6.0,14.0,68,0.00,,,1.05,,2013-06-09 17:32:00,
2013-06-09 12:42:00,69.0,58.0,29.78,West,270,6.0,14.0,68,0.00,,,1.05,,2013-06-09 17:42:00,
2013-06-09 12:52:00,69.0,58.0,29.78,WNW,294,6.0,12.0,69,0.00,,,1.05,,2013-06-09 17:52:00,
2013-06-09 13:02:00,68.0,58.0,29.79,West,267,4.0,16.0,70,0.00,,,1.05,,2013-06-09 18:02:00,
2013-06-09 13:12:00,68.0,58.0,29.79,West,267,4.0,16.0,70,0.00,,,1.05,,2013-06-09 18:12:00,
2013-06-09 13:21:00,68.0,58.0,29.79,NW,309,3.0,11.0,71,0.00,,,1.05,,2013-06-09 18:21:00,
2013-06-09 13:32:00,69.0,58.0,29.78,WNW,284,3.0,10.0,69,0.00,,,1.05,,2013-06-09 18:32:00,
2013-06-09 13:42:00,69.0,58.0,29.78,WNW,284,3.0,10.0,69,0.00,,,1.05,,2013-06-09 18:42:00,
2013-06-09 13:52:00,69.0,58.0,29.78,WNW,302,3.0,7.0,69,0.00,,,1.05,,2013-06-09 18:52:00,
2013-06-09 14:02:00,68.0,57.0,29.79,NW,314,3.0,8.0,69,0.00,,,1.05,,2013-06-09 19:02:00,
2013-06-09 14:12:00,68.0,57.0,29.79,NW,314,3.0,8.0,69,0.00,,,1.05,,2013-06-09 19:12:00,
2013-06-09 14:22:00,69.0,59.0,29.78,WNW,292,4.0,8.0,70,0.00,,,1.05,,2013-06-09 19:22:00,
2013-06-09 14:32:00,69.0,58.0,29.78,WNW,302,4.0,9.0,69,0.00,,,1.05,,2013-06-09 19:32:00,
2013-06-09 14:42:00,69.0,58.0,29.78,WNW,302,4.0,9.0,69,0.00,,,1.05,,2013-06-09 19:42:00,
2013-06-09 14:52:00,69.0,59.0,29.78,NW,304,5.0,8.0,70,0.00,,,1.05,,2013-06-09 19:52:00,
2013-06-09 15:02:00,68.0,58.0,29.80,WNW,292,7.0,11.0,70,0.00,,,1.05,,2013-06-09 20:02:00,
2013-06-09 15:12:00,68.0,58.0,29.80,WNW,292,7.0,11.0,70,0.00,,,1.05,,2013-06-09 20:12:00,
2013-06-09 15:22:00,67.0,56.0,29.79,WNW,302,6.0,12.0,69,0.00,,,1.05,,2013-06-09 20:22:00,
2013-06-09 15:32:00,66.0,56.0,29.80,WNW,293,6.0,11.0,71,0.00,,,1.05,,2013-06-09 20:32:00,
2013-06-09 15:42:00,66.0,56.0,29.80,WNW,293,6.0,11.0,71,0.00,,,1.05,,2013-06-09 20:42:00,
2013-06-09 15:52:00,66.0,57.0,29.80,WNW,302,7.0,16.0,72,0.00,,,1.05,,2013-06-09 20:52:00,
2013-06-09 16:02:00,67.0,58.0,29.79,WNW,300,4.0,9.0,72,0.00,,,1.05,,2013-06-09 21:02:00,
2013-06-09 16:12:00,67.0,58.0,29.79,West,271,3.0,8.0,74,0.00,,,1.05,,2013-06-09 21:12:00,
2013-06-09 16:22:00,67.0,58.0,29.79,West,271,3.0,8.0,74,0.00,,,1.05,,2013-06-09 21:22:00,
2013-06-09 16:33:00,66.0,58.0,29.79,WNW,303,3.0,7.0,75,0.00,,,1.05,,2013-06-09 21:33:00,
2013-06-09 16:43:00,66.0,58.0,29.79,WNW,303,3.0,7.0,75,0.00,,,1.05,,2013-06-09 21:43:00,
2013-06-09 16:53:00,66.0,58.0,29.79,NW,304,3.0,6.0,75,0.00,,,1.05,,2013-06-09 21:53:00,
2013-06-09 17:02:00,67.0,58.0,29.78,NW,306,3.0,9.0,74,0.00,,,1.05,,2013-06-09 22:02:00,
2013-06-09 17:13:00,67.0,58.0,29.78,NW,316,3.0,12.0,74,0.00,,,1.05,,2013-06-09 22:13:00,
2013-06-09 17:23:00,67.0,58.0,29.78,NW,316,3.0,12.0,74,0.00,,,1.05,,2013-06-09 22:23:00,
2013-06-09 17:33:00,67.0,59.0,29.78,NW,304,2.0,8.0,76,0.00,,,1.05,,2013-06-09 22:33:00,
2013-06-09 17:42:00,67.0,59.0,29.78,NW,304,2.0,8.0,76,0.00,,,1.05,,2013-06-09 22:42:00,
2013-06-09 17:52:00,68.0,60.0,29.78,WNW,298,4.0,7.0,75,0.00,,,1.05,,2013-06-09 22:52:00,
2013-06-09 18:02:00,68.0,59.0,29.76,WNW,301,3.0,6.0,74,0.00,,,1.05,,2013-06-09 23:02:00,
2013-06-09 18:12:00,69.0,60.0,29.77,WNW,301,4.0,8.0,73,0.00,,,1.05,,2013-06-09 23:12:00,
2013-06-09 18:22:00,69.0,60.0,29.77,WNW,301,4.0,8.0,73,0.00,,,1.05,,2013-06-09 23:22:00,
2013-06-09 18:32:00,70.0,60.0,29.76,WNW,300,3.0,7.0,70,0.00,,,1.05,,2013-06-09 23:32:00,
2013-06-09 18:42:00,70.0,60.0,29.76,WNW,300,3.0,7.0,70,0.00,,,1.05,,2013-06-09 23:42:00,
2013-06-09 18:52:00,70.0,59.0,29.76,WNW,302,3.0,7.0,69,0.00,,,1.05,,2013-06-09 23:52:00,
2013-06-09 19:02:00,71.0,59.0,29.76,WNW,289,7.0,10.0,66,0.00,,,1.05,,2013-06-10 00:02:00,
2013-06-09 19:12:00,70.0,59.0,29.76,NW,306,3.0,11.0,67,0.00,,,1.05,,2013-06-10 00:12:00,
2013-06-09 19:22:00,70.0,59.0,29.76,NW,306,3.0,11.0,67,0.00,,,1.05,,2013-06-10 00:22:00,
2013-06-09 19:32:00,69.0,59.0,29.77,WNW,299,0.0,5.0,71,0.00,,,1.05,,2013-06-10 00:32:00,
2013-06-09 19:42:00,69.0,59.0,29.77,WNW,299,0.0,5.0,71,0.00,,,1.05,,2013-06-10 00:42:00,
2013-06-09 19:52:00,69.0,60.0,29.77,WNW,299,0.0,0.0,73,0.00,,,1.05,,2013-06-10 00:52:00,
2013-06-09 20:02:00,69.0,60.0,29.78,WNW,299,0.0,2.0,73,0.00,,,1.05,,2013-06-10 01:02:00,
2013-06-09 20:12:00,69.0,60.0,29.78,WNW,299,0.0,2.0,73,0.00,,,1.05,,2013-06-10 01:12:00,
2013-06-09 20:22:00,69.0,60.0,29.77,WNW,299,2.0,3.0,73,0.00,,,1.05,,2013-06-10 01:22:00,
2013-06-09 20:32:00,68.0,59.0,29.78,WNW,299,0.0,0.0,73,0.00,,,1.05,,2013-06-10 01:32:00,
2013-06-09 20:42:00,68.0,59.0,29.78,WNW,299,0.0,0.0,73,0.00,,,1.05,,2013-06-10 01:42:00,
2013-06-09 20:52:00,69.0,60.0,29.77,WNW,299,2.0,3.0,73,0.00,,,1.05,,2013-06-10 01:52:00,
2013-06-09 21:02:00,68.0,60.0,29.78,WNW,299,2.0,4.0,75,0.00,,,1.05,,2013-06-10 02:02:00,
2013-06-09 21:12:00,68.0,60.0,29.78,WNW,299,2.0,4.0,75,0.00,,,1.05,,2013-06-10 02:12:00,
2013-06-09 21:22:00,67.0,59.0,29.78,WNW,299,3.0,6.0,75,0.00,,,1.05,,2013-06-10 02:22:00,
2013-06-09 21:32:00,67.0,58.0,29.78,WNW,299,0.0,7.0,74,0.00,,,1.04,,2013-06-10 02:32:00,
2013-06-09 21:42:00,67.0,58.0,29.78,WNW,299,0.0,7.0,74,0.00,,,1.04,,2013-06-10 02:42:00,
2013-06-09 21:52:00,66.0,57.0,29.78,WNW,299,0.0,4.0,74,0.00,,,1.04,,2013-06-10 02:52:00,
2013-06-09 22:02:00,65.0,58.0,29.78,WNW,299,0.0,0.0,77,0.00,,,1.02,,2013-06-10 03:02:00,
2013-06-09 22:12:00,65.0,58.0,29.78,WNW,299,0.0,0.0,77,0.00,,,1.02,,2013-06-10 03:12:00,
2013-06-09 22:22:00,65.0,58.0,29.79,WNW,299,0.0,0.0,77,0.00,,,0.92,,2013-06-10 03:22:00,
2013-06-09 22:33:00,64.0,57.0,29.80,WNW,299,0.0,0.0,78,0.00,,,0.61,,2013-06-10 03:33:00,
2013-06-09 22:43:00,64.0,57.0,29.80,WNW,299,0.0,0.0,78,0.00,,,0.61,,2013-06-10 03:43:00,
2013-06-09 22:53:00,64.0,57.0,29.80,WNW,299,1.0,1.0,78,0.00,,,0.55,,2013-06-10 03:53:00,
2013-06-09 23:03:00,64.0,57.0,29.81,WNW,299,0.0,0.0,79,0.00,,,0.39,,2013-06-10 04:03:00,
2013-06-09 23:12:00,64.0,58.0,29.80,WNW,299,0.0,0.0,80,0.00,,,0.38,,2013-06-10 04:12:00,
2013-06-09 23:23:00,64.0,58.0,29.80,WNW,299,0.0,0.0,80,0.00,,,0.38,,2013-06-10 04:23:00,
2013-06-09 23:33:00,63.0,57.0,29.80,WNW,299,0.0,0.0,81,0.00,,,0.38,,2013-06-10 04:33:00,
2013-06-09 23:42:00,63.0,57.0,29.80,WNW,299,0.0,0.0,81,0.00,,,0.38,,2013-06-10 04:42:00,
2013-06-09 23:52:00,63.0,57.0,29.80,WNW,299,0.0,0.0,82,0.00,,,0.38,,2013-06-10 04:52:00,